Weather History for KCAE - December, 2013

Change the Weather History Date:

Wednesday, December 11, 2013

  Actual Average Record
Temperature  
Mean Temperature 42 °F 48 °F  
Max Temperature 55 °F 59 °F 80 °F (2007)
Min Temperature 29 °F 36 °F 16 °F (1977)
Degree Days  
Heating Degree Days 23 18  
Month to date heating degree days 115 180  
Since 1 July heating degree days 562 621  
Cooling Degree Days 0 0  
Month to date cooling degree days 6 0  
Year to date cooling degree days 2178 2167  
Moisture  
Dew Point 29 °F    
Average Humidity 61    
Maximum Humidity 92    
Minimum Humidity 30    
Precipitation  
Precipitation 0.00 in 0.11 in 1.58 in (2008)
Month to date precipitation 1.94 1.11  
Year to date precipitation 51.53 42.48  
Sea Level Pressure  
Sea Level Pressure 30.37 in    
Wind  
Wind Speed 1 mph (SE)    
Max Wind Speed 9 mph    
Max Gust Speed 13 mph    
Visibility 10 miles    
Events      
T = Trace of Precipitation, MM = Missing Value Source: NWS Daily Summary

Daily Weather History Graph

Daily Weather History Graph

Search for Another Location

Airport or City:

Trip Planner

Search our weather history database for the weather conditions in past years. The results will help you decide how hot, cold, wet, or windy it might be!

Date:

Astronomy

Dec. 11, 2013 Rise Set
Actual Time 7:19 AM EST 5:15 PM EST
Civil Twilight 6:52 AM EST 5:43 PM EST
Nautical Twilight 6:20 AM EST 6:14 PM EST
Astronomical Twilight 5:50 AM EST 6:45 PM EST
Moon 1:37 PM EST (12/11) 1:52 AM EST (12/11)
Length of Visible Light 10h 51m
Length of Day
9h 56m
Waxing Gibbous, 71% of the Moon is Illuminated
Dec 11
Waxing Gibbous
Dec 17
Full
Dec 25
Last Quarter
Jan 1
New
Jan 7
First Quarter

Hourly Weather History & Observations

Time (EST) Temp. Windchill Dew Point Humidity Pressure Visibility Wind Dir Wind Speed Gust Speed Precip Events Conditions
12:56 AM 36.0 °F - 28.0 °F 73% 30.35 in 10.0 mi Calm Calm - N/A   Scattered Clouds
1:56 AM 32.0 °F - 28.0 °F 85% 30.35 in 10.0 mi Calm Calm - N/A   Clear
2:56 AM 32.0 °F - 28.0 °F 85% 30.35 in 10.0 mi Calm Calm - N/A   Clear
3:56 AM 30.9 °F - 28.0 °F 89% 30.36 in 10.0 mi Calm Calm - N/A   Clear
4:56 AM 30.0 °F - 27.0 °F 88% 30.37 in 10.0 mi Calm Calm - N/A   Clear
5:56 AM 28.9 °F - 26.1 °F 89% 30.40 in 10.0 mi Calm Calm - N/A   Clear
6:56 AM 30.0 °F - 27.0 °F 88% 30.43 in 10.0 mi Calm Calm - N/A   Partly Cloudy
7:56 AM 30.0 °F - 27.0 °F 88% 30.45 in 10.0 mi Calm Calm - N/A   Partly Cloudy
8:56 AM 35.1 °F - 30.9 °F 85% 30.45 in 10.0 mi Calm Calm - N/A   Partly Cloudy
9:56 AM 41.0 °F - 32.0 °F 70% 30.47 in 10.0 mi Calm Calm - N/A   Partly Cloudy
10:56 AM 46.0 °F 41.4 °F 25.0 °F 44% 30.46 in 10.0 mi ESE 9.2 mph - N/A   Partly Cloudy
11:56 AM 48.9 °F - 25.0 °F 39% 30.42 in 10.0 mi ESE 8.1 mph - N/A   Partly Cloudy
12:56 PM 50.0 °F - 26.1 °F 39% 30.39 in 10.0 mi Variable 3.5 mph - N/A   Partly Cloudy
1:56 PM 52.0 °F - 24.1 °F 34% 30.35 in 10.0 mi Calm Calm - N/A   Partly Cloudy
2:56 PM 55.0 °F - 25.0 °F 31% 30.33 in 10.0 mi Calm Calm - N/A   Partly Cloudy
3:56 PM 55.0 °F - 26.1 °F 33% 30.33 in 10.0 mi Calm Calm - N/A   Partly Cloudy
4:56 PM 54.0 °F - 27.0 °F 35% 30.34 in 10.0 mi Calm Calm - N/A   Partly Cloudy
5:56 PM 48.0 °F - 28.9 °F 48% 30.34 in 10.0 mi Calm Calm - N/A   Scattered Clouds
6:56 PM 45.0 °F - 34.0 °F 65% 30.35 in 10.0 mi Calm Calm - N/A   Mostly Cloudy
7:56 PM 43.0 °F - 34.0 °F 71% 30.35 in 10.0 mi Calm Calm - N/A   Clear
8:56 PM 41.0 °F - 36.0 °F 82% 30.33 in 10.0 mi Calm Calm - N/A   Scattered Clouds
9:56 PM 39.9 °F 37.8 °F 34.0 °F 79% 30.33 in 10.0 mi West 3.5 mph - N/A   Scattered Clouds
10:56 PM 37.9 °F - 35.1 °F 89% 30.33 in 10.0 mi Calm Calm - N/A   Scattered Clouds
11:56 PM 36.0 °F - 33.1 °F 89% 30.31 in 10.0 mi Calm Calm - N/A   Partly Cloudy